| time (UTC) | temp F | wind direction | speed MPH | gust MPH | rain 1hr in | rain 24hr in | rain mn in | humidity % | barometer mb |
| 20260903062722 | 78 | 136 | 0.0 | 0.0 | 0.00 | 0.00 | 0.00 | 92 | 1010.7 |
| 20260903062221 | 78 | 136 | 0.0 | 0.0 | 0.00 | 0.00 | 0.00 | 92 | 1010.7 |
| 20260903061718 | 78 | 135 | 0.0 | 0.0 | 0.00 | 0.00 | 0.00 | 92 | 1010.6 |
| 20260903061216 | 78 | 137 | 0.0 | 0.0 | 0.00 | 0.00 | 0.00 | 92 | 1010.8 |
| 20260903060711 | 78 | 137 | 0.0 | 0.0 | 0.00 | 0.00 | 0.00 | 92 | 1010.5 |
| 20260903060206 | 78 | 137 | 0.0 | 0.0 | 0.00 | 0.00 | 0.00 | 92 | 1010.7 |
| 20260903055704 | 78 | 137 | 0.0 | 0.0 | 0.00 | 0.00 | 0.00 | 92 | 1010.6 |
| 20260903055202 | 78 | 136 | 0.0 | 1.0 | 0.00 | 0.00 | 0.00 | 92 | 1010.7 |
| 20260903054657 | 78 | 137 | 0.0 | 0.0 | 0.00 | 0.00 | 0.00 | 93 | 1010.7 |
| 20260903054153 | 78 | 136 | 0.0 | 0.0 | 0.00 | 0.00 | 0.00 | 92 | 1010.9 |
| 20260903053649 | 78 | 136 | 0.0 | 0.0 | 0.00 | 0.00 | 0.00 | 92 | 1010.9 |
| 20260903053144 | 78 | 137 | 0.0 | 0.0 | 0.00 | 0.00 | 0.00 | 92 | 1010.6 |
| 20260903052640 | 78 | 137 | 0.0 | 0.0 | 0.00 | 0.00 | 0.00 | 91 | 1010.7 |
| 20260903052135 | 78 | 137 | 0.0 | 0.0 | 0.00 | 0.00 | 0.00 | 91 | 1010.5 |
| 20260903051630 | 79 | 137 | 0.0 | 0.0 | 0.00 | 0.00 | 0.00 | 90 | 1010.5 |
| 20260903051126 | 79 | 136 | 0.0 | 0.0 | 0.00 | 0.00 | 0.00 | 90 | 1010.5 |
| 20260903050626 | 79 | 137 | 0.0 | 0.0 | 0.00 | 0.00 | 0.00 | 89 | 1010.5 |
| 20260903050120 | 80 | 137 | 0.0 | 0.0 | 0.00 | 0.00 | 0.00 | 89 | 1010.4 |
| 20260903045620 | 80 | 136 | 0.0 | 0.0 | 0.00 | 0.00 | 0.00 | 88 | 1010.4 |
| 20260903045117 | 79 | 136 | 0.0 | 1.0 | 0.00 | 0.00 | 0.00 | 89 | 1010.5 |
| 20260903044612 | 79 | 136 | 0.0 | 0.0 | 0.00 | 0.00 | 0.00 | 90 | 1010.4 |
| 20260903044108 | 78 | 137 | 0.0 | 0.0 | 0.00 | 0.00 | 0.00 | 91 | 1010.5 |
| 20260903043604 | 78 | 137 | 0.0 | 0.0 | 0.00 | 0.00 | 0.00 | 92 | 1010.3 |
| 20260903043103 | 78 | 136 | 0.0 | 0.0 | 0.00 | 0.00 | 0.00 | 92 | 1010.3 |
| 20260903042557 | 78 | 136 | 0.0 | 0.0 | 0.00 | 0.00 | 0.00 | 92 | 1010.4 |
| 20260903042053 | 78 | 137 | 0.0 | 0.0 | 0.00 | 0.00 | 0.00 | 92 | 1010.4 |
| 20260903041550 | 79 | 136 | 0.0 | 0.0 | 0.00 | 0.00 | 0.00 | 91 | 1010.6 |
| 20260903041044 | 79 | 137 | 0.0 | 0.0 | 0.00 | 0.00 | 0.00 | 91 | 1010.6 |
| 20260903040543 | 79 | 137 | 0.0 | 0.0 | 0.00 | 0.00 | 0.00 | 90 | 1010.5 |
| 20260903040041 | 79 | 137 | 0.0 | 0.0 | 0.00 | 0.00 | 0.00 | 89 | 1010.5 |
| 20260903035541 | 80 | 137 | 0.0 | 0.0 | 0.00 | 0.00 | 0.00 | 89 | 1010.5 |
| 20260903035037 | 80 | 137 | 0.0 | 0.0 | 0.00 | 0.00 | 0.00 | 89 | 1010.5 |
| 20260903034531 | 81 | 137 | 0.0 | 0.0 | 0.00 | 0.00 | 0.00 | 88 | 1010.5 |
| 20260903034027 | 81 | 137 | 0.0 | 0.0 | 0.00 | 0.00 | 0.00 | 87 | 1010.4 |
| 20260903033521 | 81 | 137 | 0.0 | 0.0 | 0.00 | 0.00 | 0.00 | 86 | 1010.4 |
| 20260903033017 | 82 | 137 | 0.0 | 0.0 | 0.00 | 0.00 | 0.00 | 86 | 1010.4 |
| 20260903032512 | 82 | 137 | 0.0 | 0.0 | 0.00 | 0.00 | 0.00 | 85 | 1010.4 |
| 20260903032007 | 82 | 137 | 1.0 | 1.0 | 0.00 | 0.00 | 0.00 | 85 | 1010.2 |
| 20260903031507 | 83 | 138 | 0.0 | 1.0 | 0.00 | 0.00 | 0.00 | 83 | 1010.2 |
| 20260903031002 | 83 | 139 | 1.0 | 1.0 | 0.00 | 0.00 | 0.00 | 83 | 1010.2 |
| 20260903030458 | 83 | 141 | 1.0 | 3.0 | 0.00 | 0.00 | 0.00 | 82 | 1010.1 |
| 20260903025953 | 83 | 140 | 1.0 | 3.0 | 0.00 | 0.00 | 0.00 | 82 | 1010.4 |
| 20260903025449 | 83 | 140 | 0.0 | 0.0 | 0.00 | 0.00 | 0.00 | 83 | 1010.3 |
| 20260903024944 | 84 | 140 | 0.0 | 1.0 | 0.00 | 0.00 | 0.00 | 83 | 1010.4 |
| 20260903024443 | 84 | 140 | 0.0 | 1.0 | 0.00 | 0.00 | 0.00 | 82 | 1010.2 |
| 20260903023938 | 84 | 140 | 1.0 | 2.0 | 0.00 | 0.00 | 0.00 | 81 | 1010.4 |
| 20260903023434 | 85 | 142 | 1.0 | 3.0 | 0.00 | 0.00 | 0.00 | 80 | 1010.2 |
| 20260903022929 | 85 | 142 | 2.0 | 3.0 | 0.00 | 0.00 | 0.00 | 79 | 1010.1 |
| 20260903022428 | 85 | 140 | 1.0 | 3.0 | 0.00 | 0.00 | 0.00 | 80 | 1010.3 |
| 20260903021926 | 85 | 143 | 3.0 | 3.0 | 0.00 | 0.00 | 0.00 | 79 | 1010.1 |
| 20260903021422 | 85 | 147 | 3.0 | 6.0 | 0.00 | 0.00 | 0.00 | 79 | 1010.0 |
| 20260903020917 | 85 | 141 | 3.0 | 6.0 | 0.00 | 0.00 | 0.00 | 80 | 1010.3 |
| 20260903020412 | 85 | 147 | 3.0 | 6.0 | 0.00 | 0.00 | 0.00 | 80 | 1009.9 |
| 20260903015907 | 85 | 145 | 1.0 | 3.0 | 0.00 | 0.00 | 0.00 | 80 | 1010.0 |
| 20260903015403 | 85 | 138 | 1.0 | 2.0 | 0.00 | 0.00 | 0.00 | 80 | 1010.0 |
| 20260903014857 | 86 | 138 | 3.0 | 5.0 | 0.00 | 0.00 | 0.00 | 79 | 1010.0 |
| 20260903014351 | 86 | 138 | 2.0 | 5.0 | 0.00 | 0.00 | 0.00 | 78 | 1009.8 |
| 20260903013846 | 86 | 138 | 1.0 | 3.0 | 0.00 | 0.00 | 0.00 | 78 | 1010.0 |
| 20260903013346 | 86 | 139 | 1.0 | 2.0 | 0.00 | 0.00 | 0.00 | 78 | 1009.7 |
| 20260903012846 | 86 | 138 | 1.0 | 5.0 | 0.00 | 0.00 | 0.00 | 78 | 1009.7 |
| 20260903012340 | 86 | 138 | 3.0 | 6.0 | 0.00 | 0.00 | 0.00 | 78 | 1009.7 |
| 20260903011839 | 86 | 139 | 2.0 | 2.0 | 0.00 | 0.00 | 0.00 | 78 | 1009.5 |
| 20260903011338 | 86 | 138 | 2.0 | 6.0 | 0.00 | 0.00 | 0.00 | 78 | 1009.4 |
| 20260903010834 | 86 | 138 | 2.0 | 3.0 | 0.00 | 0.00 | 0.00 | 77 | 1009.4 |
| 20260903010329 | 86 | 140 | 3.0 | 5.0 | 0.00 | 0.00 | 0.00 | 77 | 1009.4 |
| 20260903005827 | 86 | 139 | 2.0 | 2.0 | 0.00 | 0.00 | 0.00 | 77 | 1009.4 |
| 20260903005323 | 87 | 138 | 3.0 | 3.0 | 0.00 | 0.00 | 0.00 | 76 | 1009.3 |
| 20260903004819 | 87 | 140 | 1.0 | 5.0 | 0.00 | 0.00 | 0.00 | 75 | 1009.4 |
| 20260903004314 | 87 | 138 | 2.0 | 3.0 | 0.00 | 0.00 | 0.00 | 75 | 1009.4 |
| 20260903003809 | 88 | 139 | 1.0 | 3.0 | 0.00 | 0.00 | 0.00 | 74 | 1009.4 |
| 20260903003304 | 88 | 141 | 3.0 | 5.0 | 0.00 | 0.00 | 0.00 | 73 | 1009.4 |
| 20260903002759 | 88 | 139 | 1.0 | 5.0 | 0.00 | 0.00 | 0.00 | 72 | 1009.1 |
| 20260903002258 | 88 | 141 | 4.0 | 6.0 | 0.00 | 0.00 | 0.00 | 72 | 1009.4 |
| 20260903001753 | 88 | 141 | 2.0 | 7.0 | 0.00 | 0.00 | 0.00 | 72 | 1009.5 |
| 20260903001248 | 88 | 141 | 3.0 | 7.0 | 0.00 | 0.00 | 0.00 | 72 | 1009.3 |
| 20260903000743 | 88 | 139 | 3.0 | 9.0 | 0.00 | 0.00 | 0.00 | 72 | 1009.6 |
| 20260903000237 | 88 | 140 | 4.0 | 6.0 | 0.00 | 0.00 | 0.00 | 73 | 1009.3 |
| 20260902235736 | 88 | 139 | 1.0 | 3.0 | 0.00 | 0.00 | 0.00 | 74 | 1009.6 |
| 20260902235231 | 88 | 139 | 2.0 | 2.0 | 0.00 | 0.00 | 0.00 | 73 | 1009.6 |
| 20260902234731 | 88 | 140 | 1.0 | 2.0 | 0.00 | 0.00 | 0.00 | 72 | 1009.7 |
| 20260902234230 | 89 | 139 | 1.0 | 1.0 | 0.00 | 0.00 | 0.00 | 72 | 1009.6 |
| 20260902233730 | 89 | 140 | 1.0 | 2.0 | 0.00 | 0.00 | 0.00 | 71 | 1009.6 |
| 20260902233224 | 89 | 138 | 1.0 | 2.0 | 0.00 | 0.00 | 0.00 | 71 | 1009.6 |
| 20260902232722 | 89 | 138 | 0.0 | 2.0 | 0.00 | 0.00 | 0.00 | 71 | 1009.4 |
| 20260902232217 | 90 | 138 | 1.0 | 2.0 | 0.00 | 0.00 | 0.00 | 70 | 1009.7 |
| 20260902231711 | 90 | 141 | 2.0 | 5.0 | 0.00 | 0.00 | 0.00 | 68 | 1009.6 |
| 20260902231206 | 90 | 140 | 3.0 | 5.0 | 0.00 | 0.00 | 0.00 | 68 | 1009.5 |
| 20260902230702 | 90 | 136 | 3.0 | 6.0 | 0.00 | 0.00 | 0.00 | 69 | 1009.5 |
| 20260902230200 | 90 | 139 | 2.0 | 7.0 | 0.00 | 0.00 | 0.00 | 67 | 1009.6 |
| 20260902225655 | 91 | 141 | 2.0 | 5.0 | 0.00 | 0.00 | 0.00 | 69 | 1009.7 |
| 20260902225155 | 91 | 138 | 3.0 | 3.0 | 0.00 | 0.00 | 0.00 | 67 | 1009.5 |
| 20260902224653 | 91 | 139 | 1.0 | 3.0 | 0.00 | 0.00 | 0.00 | 67 | 1009.8 |
| 20260902224149 | 91 | 137 | 2.0 | 5.0 | 0.00 | 0.00 | 0.00 | 66 | 1009.6 |
| 20260902223645 | 91 | 140 | 3.0 | 5.0 | 0.00 | 0.00 | 0.00 | 67 | 1009.8 |
| 20260902223145 | 91 | 140 | 5.0 | 6.0 | 0.00 | 0.00 | 0.00 | 65 | 1009.8 |
| 20260902222644 | 91 | 139 | 2.0 | 3.0 | 0.00 | 0.00 | 0.00 | 65 | 1009.8 |
| 20260902222142 | 92 | 140 | 2.0 | 3.0 | 0.00 | 0.00 | 0.00 | 65 | 1009.9 |
| 20260902221636 | 93 | 142 | 2.0 | 5.0 | 0.00 | 0.00 | 0.00 | 65 | 1009.8 |
| 20260902221126 | 93 | 139 | 2.0 | 5.0 | 0.00 | 0.00 | 0.00 | 63 | 1009.8 |
| 20260902220622 | 93 | 139 | 2.0 | 2.0 | 0.00 | 0.00 | 0.00 | 62 | 1009.9 |
| 20260902220122 | 94 | 142 | 4.0 | 5.0 | 0.00 | 0.00 | 0.00 | 61 | 1009.7 |
| 20260902215618 | 94 | 141 | 1.0 | 3.0 | 0.00 | 0.00 | 0.00 | 60 | 1009.7 |
| 20260902215113 | 95 | 139 | 2.0 | 7.0 | 0.00 | 0.00 | 0.00 | 59 | 1010.0 |
| 20260902214608 | 95 | 140 | 5.0 | 6.0 | 0.00 | 0.00 | 0.00 | 59 | 1009.7 |
| 20260902214106 | 96 | 141 | 0.0 | 3.0 | 0.00 | 0.00 | 0.00 | 60 | 1009.8 |
| 20260902213603 | 96 | 141 | 1.0 | 2.0 | 0.00 | 0.00 | 0.00 | 60 | 1009.9 |
| 20260902213102 | 95 | 140 | 1.0 | 3.0 | 0.00 | 0.00 | 0.00 | 59 | 1009.9 |
| 20260902212557 | 96 | 148 | 3.0 | 7.0 | 0.00 | 0.00 | 0.00 | 60 | 1009.7 |
| 20260902212053 | 96 | 137 | 4.0 | 5.0 | 0.00 | 0.00 | 0.00 | 59 | 1010.0 |
| 20260902211549 | 95 | 140 | 2.0 | 3.0 | 0.00 | 0.00 | 0.00 | 62 | 1009.8 |
| 20260902211044 | 95 | 141 | 3.0 | 3.0 | 0.00 | 0.00 | 0.00 | 59 | 1010.0 |
| 20260902210538 | 95 | 139 | 3.0 | 3.0 | 0.00 | 0.00 | 0.00 | 60 | 1009.9 |
| 20260902210038 | 96 | 141 | 2.0 | 2.0 | 0.00 | 0.00 | 0.00 | 56 | 1010.0 |
| 20260902205537 | 96 | 140 | 2.0 | 6.0 | 0.00 | 0.00 | 0.00 | 58 | 1010.1 |
| 20260902205033 | 96 | 138 | 2.0 | 7.0 | 0.00 | 0.00 | 0.00 | 58 | 1010.0 |
| 20260902204533 | 95 | 142 | 2.0 | 3.0 | 0.00 | 0.00 | 0.00 | 59 | 1010.0 |
| 20260902204027 | 95 | 140 | 2.0 | 3.0 | 0.00 | 0.00 | 0.00 | 59 | 1010.0 |
| 20260902203523 | 96 | 139 | 1.0 | 8.0 | 0.00 | 0.00 | 0.00 | 58 | 1010.2 |
| 20260902203022 | 96 | 141 | 1.0 | 8.0 | 0.00 | 0.00 | 0.00 | 59 | 1010.2 |
| 20260902202518 | 96 | 141 | 1.0 | 2.0 | 0.00 | 0.00 | 0.00 | 59 | 1010.0 |
| 20260902202014 | 95 | 141 | 0.0 | 3.0 | 0.00 | 0.00 | 0.00 | 60 | 1010.0 |
| 20260902201510 | 96 | 138 | 2.0 | 5.0 | 0.00 | 0.00 | 0.00 | 59 | 1010.1 |
| 20260902201004 | 95 | 140 | 2.0 | 3.0 | 0.00 | 0.00 | 0.00 | 60 | 1010.1 |
| 20260902200459 | 94 | 137 | 3.0 | 6.0 | 0.00 | 0.00 | 0.00 | 60 | 1010.4 |
| 20260902195955 | 95 | 139 | 1.0 | 7.0 | 0.00 | 0.00 | 0.00 | 62 | 1010.4 |
| 20260902195450 | 95 | 139 | 3.0 | 6.0 | 0.00 | 0.00 | 0.00 | 59 | 1010.3 |
| 20260902194949 | 95 | 141 | 1.0 | 3.0 | 0.00 | 0.00 | 0.00 | 58 | 1010.3 |
| 20260902194449 | 95 | 137 | 2.0 | 5.0 | 0.00 | 0.00 | 0.00 | 59 | 1010.5 |
| 20260902193944 | 94 | 140 | 2.0 | 3.0 | 0.00 | 0.00 | 0.00 | 65 | 1010.3 |
| 20260902193440 | 94 | 139 | 1.0 | 2.0 | 0.00 | 0.00 | 0.00 | 62 | 1010.4 |
| 20260902192938 | 95 | 139 | 4.0 | 8.0 | 0.00 | 0.00 | 0.00 | 59 | 1010.6 |
| 20260902192438 | 95 | 140 | 4.0 | 7.0 | 0.00 | 0.00 | 0.00 | 59 | 1010.5 |
| 20260902191936 | 95 | 140 | 3.0 | 3.0 | 0.00 | 0.00 | 0.00 | 60 | 1010.7 |
| 20260902191432 | 95 | 139 | 1.0 | 5.0 | 0.00 | 0.00 | 0.00 | 59 | 1010.5 |
| 20260902190928 | 96 | 138 | 3.0 | 6.0 | 0.00 | 0.00 | 0.00 | 58 | 1010.9 |
| 20260902190423 | 95 | 139 | 1.0 | 3.0 | 0.00 | 0.00 | 0.00 | 59 | 1010.7 |
| 20260902185918 | 95 | 137 | 2.0 | 5.0 | 0.00 | 0.00 | 0.00 | 58 | 1010.6 |
| 20260902185414 | 95 | 139 | 2.0 | 6.0 | 0.00 | 0.00 | 0.00 | 61 | 1010.9 |
| 20260902184909 | 94 | 139 | 3.0 | 6.0 | 0.00 | 0.00 | 0.00 | 61 | 1010.5 |
| 20260902184404 | 94 | 135 | 2.0 | 6.0 | 0.00 | 0.00 | 0.00 | 60 | 1010.7 |
| 20260902183900 | 93 | 138 | 2.0 | 3.0 | 0.00 | 0.00 | 0.00 | 63 | 1010.7 |
| 20260902183356 | 93 | 139 | 2.0 | 7.0 | 0.00 | 0.00 | 0.00 | 62 | 1010.8 |
| 20260902182852 | 94 | 137 | 4.0 | 7.0 | 0.00 | 0.00 | 0.00 | 60 | 1010.6 |
| 20260902182348 | 95 | 139 | 4.0 | 7.0 | 0.00 | 0.00 | 0.00 | 59 | 1010.8 |
| 20260902181844 | 94 | 138 | 1.0 | 3.0 | 0.00 | 0.00 | 0.00 | 62 | 1010.9 |
| 20260902181339 | 94 | 138 | 5.0 | 7.0 | 0.00 | 0.00 | 0.00 | 58 | 1010.8 |
| 20260902180833 | 94 | 138 | 2.0 | 3.0 | 0.00 | 0.00 | 0.00 | 62 | 1011.1 |
| 20260902180329 | 94 | 139 | 2.0 | 5.0 | 0.00 | 0.00 | 0.00 | 60 | 1010.9 |
| 20260902175818 | 94 | 143 | 4.0 | 7.0 | 0.00 | 0.00 | 0.00 | 60 | 1011.1 |
| 20260902175314 | 94 | 139 | 6.0 | 9.0 | 0.00 | 0.00 | 0.00 | 60 | 1010.9 |
| 20260902174809 | 93 | 139 | 1.0 | 6.0 | 0.00 | 0.00 | 0.00 | 62 | 1010.9 |
| 20260902174305 | 93 | 138 | 2.0 | 5.0 | 0.00 | 0.00 | 0.00 | 62 | 1011.0 |
| 20260902173801 | 93 | 135 | 2.0 | 5.0 | 0.00 | 0.00 | 0.00 | 63 | 1011.0 |
| 20260902173255 | 93 | 139 | 3.0 | 3.0 | 0.00 | 0.00 | 0.00 | 61 | 1011.0 |
| 20260902172750 | 92 | 140 | 5.0 | 6.0 | 0.00 | 0.00 | 0.00 | 62 | 1011.0 |
| 20260902172249 | 92 | 137 | 3.0 | 5.0 | 0.00 | 0.00 | 0.00 | 63 | 1011.2 |
| 20260902171744 | 91 | 138 | 2.0 | 7.0 | 0.00 | 0.00 | 0.00 | 64 | 1011.0 |
| 20260902171239 | 91 | 139 | 1.0 | 7.0 | 0.00 | 0.00 | 0.00 | 66 | 1011.3 |
| 20260902170736 | 91 | 136 | 3.0 | 5.0 | 0.00 | 0.00 | 0.00 | 64 | 1011.3 |
| 20260902170231 | 91 | 138 | 2.0 | 5.0 | 0.00 | 0.00 | 0.00 | 65 | 1011.1 |
| 20260902165726 | 91 | 137 | 3.0 | 3.0 | 0.00 | 0.00 | 0.00 | 66 | 1011.5 |
| 20260902165221 | 91 | 136 | 1.0 | 3.0 | 0.00 | 0.00 | 0.00 | 63 | 1011.6 |
| 20260902164720 | 91 | 141 | 1.0 | 6.0 | 0.00 | 0.00 | 0.00 | 66 | 1011.2 |
| 20260902164215 | 90 | 136 | 2.0 | 5.0 | 0.00 | 0.00 | 0.00 | 68 | 1011.4 |
| 20260902163710 | 90 | 137 | 1.0 | 5.0 | 0.00 | 0.00 | 0.00 | 68 | 1011.5 |
| 20260902163210 | 89 | 138 | 4.0 | 5.0 | 0.00 | 0.00 | 0.00 | 68 | 1011.6 |
| 20260902162708 | 89 | 139 | 1.0 | 3.0 | 0.00 | 0.00 | 0.00 | 67 | 1011.5 |
| 20260902162203 | 89 | 137 | 2.0 | 3.0 | 0.00 | 0.00 | 0.00 | 70 | 1011.5 |
| 20260902161658 | 88 | 136 | 1.0 | 3.0 | 0.00 | 0.00 | 0.00 | 70 | 1011.4 |
| 20260902161154 | 88 | 138 | 1.0 | 5.0 | 0.00 | 0.00 | 0.00 | 72 | 1011.6 |
| 20260902160650 | 88 | 138 | 2.0 | 5.0 | 0.00 | 0.00 | 0.00 | 70 | 1011.7 |
| 20260902160144 | 88 | 137 | 1.0 | 2.0 | 0.00 | 0.00 | 0.00 | 74 | 1011.6 |
| 20260902155643 | 87 | 138 | 1.0 | 5.0 | 0.00 | 0.00 | 0.00 | 71 | 1011.6 |
| 20260902155142 | 87 | 135 | 1.0 | 5.0 | 0.00 | 0.00 | 0.00 | 74 | 1011.6 |
| 20260902154637 | 87 | 137 | 1.0 | 5.0 | 0.00 | 0.00 | 0.00 | 72 | 1011.9 |
| 20260902154132 | 86 | 136 | 1.0 | 1.0 | 0.00 | 0.00 | 0.00 | 74 | 1011.9 |
| 20260902153631 | 87 | 135 | 4.0 | 5.0 | 0.00 | 0.00 | 0.00 | 72 | 1012.1 |
| 20260902153126 | 86 | 137 | 1.0 | 2.0 | 0.00 | 0.00 | 0.00 | 75 | 1011.9 |
| 20260902152623 | 86 | 136 | 1.0 | 3.0 | 0.00 | 0.00 | 0.00 | 75 | 1011.8 |
| 20260902152118 | 86 | 134 | 1.0 | 2.0 | 0.00 | 0.00 | 0.00 | 75 | 1011.8 |
| 20260902151613 | 86 | 136 | 1.0 | 2.0 | 0.00 | 0.00 | 0.00 | 75 | 1011.6 |
| 20260902151113 | 84 | 136 | 1.0 | 2.0 | 0.00 | 0.00 | 0.00 | 76 | 1011.7 |
| 20260902150608 | 84 | 135 | 1.0 | 2.0 | 0.00 | 0.00 | 0.00 | 76 | 1011.8 |
| 20260902150104 | 85 | 131 | 1.0 | 3.0 | 0.00 | 0.00 | 0.00 | 76 | 1011.6 |
| 20260902145558 | 86 | 134 | 1.0 | 2.0 | 0.00 | 0.00 | 0.00 | 75 | 1012.1 |
| 20260902145057 | 86 | 137 | 2.0 | 5.0 | 0.00 | 0.00 | 0.00 | 75 | 1011.7 |
| 20260902144554 | 85 | 137 | 1.0 | 2.0 | 0.00 | 0.00 | 0.00 | 77 | 1011.9 |
| 20260902144049 | 85 | 137 | 1.0 | 2.0 | 0.00 | 0.00 | 0.00 | 75 | 1011.5 |
| 20260902143544 | 84 | 136 | 1.0 | 2.0 | 0.00 | 0.00 | 0.00 | 75 | 1011.7 |
| 20260902143040 | 85 | 137 | 1.0 | 2.0 | 0.00 | 0.00 | 0.00 | 78 | 1011.8 |
| 20260902142535 | 85 | 136 | 1.0 | 2.0 | 0.00 | 0.00 | 0.00 | 78 | 1011.5 |
| 20260902142030 | 85 | 137 | 1.0 | 2.0 | 0.00 | 0.00 | 0.00 | 77 | 1011.8 |
| 20260902141530 | 84 | 136 | 0.0 | 1.0 | 0.00 | 0.00 | 0.00 | 78 | 1011.9 |
| 20260902141025 | 83 | 137 | 1.0 | 2.0 | 0.00 | 0.00 | 0.00 | 78 | 1011.8 |
| 20260902140520 | 82 | 134 | 2.0 | 2.0 | 0.00 | 0.00 | 0.00 | 78 | 1011.9 |
| 20260902140015 | 82 | 136 | 0.0 | 2.0 | 0.00 | 0.00 | 0.00 | 79 | 1011.7 |
| 20260902135509 | 82 | 136 | 1.0 | 2.0 | 0.00 | 0.00 | 0.00 | 79 | 1011.7 |
| 20260902135010 | 82 | 136 | 3.0 | 3.0 | 0.00 | 0.00 | 0.00 | 79 | 1011.9 |
| 20260902134505 | 81 | 136 | 1.0 | 2.0 | 0.00 | 0.00 | 0.00 | 80 | 1011.8 |
| 20260902134000 | 81 | 136 | 1.0 | 2.0 | 0.00 | 0.00 | 0.00 | 81 | 1011.6 |
| 20260902133455 | 80 | 132 | 2.0 | 3.0 | 0.00 | 0.00 | 0.00 | 81 | 1012.1 |
| 20260902132949 | 80 | 138 | 1.0 | 2.0 | 0.00 | 0.00 | 0.00 | 83 | 1011.6 |
| 20260902132445 | 79 | 134 | 1.0 | 1.0 | 0.00 | 0.00 | 0.00 | 83 | 1011.8 |
| 20260902131939 | 79 | 136 | 1.0 | 2.0 | 0.00 | 0.00 | 0.00 | 84 | 1011.8 |
| 20260902131436 | 79 | 135 | 1.0 | 3.0 | 0.00 | 0.00 | 0.00 | 84 | 1012.1 |
| 20260902130935 | 78 | 137 | 0.0 | 2.0 | 0.00 | 0.00 | 0.00 | 84 | 1012.3 |
| 20260902130431 | 78 | 133 | 1.0 | 3.0 | 0.00 | 0.00 | 0.00 | 85 | 1012.3 |
| 20260902125926 | 78 | 136 | 2.0 | 2.0 | 0.00 | 0.00 | 0.00 | 86 | 1012.1 |
| 20260902125422 | 77 | 135 | 0.0 | 1.0 | 0.00 | 0.00 | 0.00 | 86 | 1012.2 |
| 20260902124918 | 77 | 136 | 0.0 | 1.0 | 0.00 | 0.00 | 0.00 | 87 | 1012.1 |
| 20260902124414 | 77 | 133 | 1.0 | 2.0 | 0.00 | 0.00 | 0.00 | 87 | 1011.8 |
| 20260902123908 | 77 | 135 | 1.0 | 2.0 | 0.00 | 0.00 | 0.00 | 87 | 1012.2 |
| 20260902123404 | 77 | 137 | 0.0 | 1.0 | 0.00 | 0.00 | 0.00 | 87 | 1011.9 |
| 20260902122902 | 77 | 136 | 0.0 | 1.0 | 0.00 | 0.00 | 0.00 | 87 | 1011.8 |
| 20260902122359 | 76 | 136 | 0.0 | 0.0 | 0.00 | 0.00 | 0.00 | 88 | 1011.8 |
| 20260902121854 | 76 | 138 | 0.0 | 0.0 | 0.00 | 0.00 | 0.00 | 89 | 1011.7 |
| 20260902121349 | 76 | 138 | 0.0 | 0.0 | 0.00 | 0.00 | 0.00 | 89 | 1011.8 |
| 20260902120844 | 76 | 138 | 0.0 | 0.0 | 0.00 | 0.00 | 0.00 | 89 | 1011.7 |
| 20260902120340 | 75 | 138 | 0.0 | 0.0 | 0.00 | 0.00 | 0.00 | 89 | 1011.5 |
| 20260902115834 | 76 | 139 | 0.0 | 0.0 | 0.00 | 0.00 | 0.00 | 89 | 1011.5 |
| 20260902115331 | 76 | 138 | 0.0 | 0.0 | 0.00 | 0.00 | 0.00 | 89 | 1011.7 |
| 20260902114827 | 76 | 137 | 0.0 | 0.0 | 0.00 | 0.00 | 0.00 | 88 | 1011.8 |
| 20260902114323 | 76 | 136 | 0.0 | 1.0 | 0.00 | 0.00 | 0.00 | 88 | 1011.6 |
| 20260902113823 | 76 | 137 | 0.0 | 1.0 | 0.00 | 0.00 | 0.00 | 88 | 1011.4 |
| 20260902113318 | 76 | 136 | 0.0 | 0.0 | 0.00 | 0.00 | 0.00 | 88 | 1011.7 |
| 20260902112818 | 76 | 134 | 0.0 | 1.0 | 0.00 | 0.00 | 0.00 | 88 | 1011.5 |
| 20260902112315 | 76 | 135 | 1.0 | 2.0 | 0.00 | 0.00 | 0.00 | 88 | 1011.6 |
| 20260902111809 | 76 | 136 | 1.0 | 2.0 | 0.00 | 0.00 | 0.00 | 88 | 1011.6 |
| 20260902111306 | 76 | 133 | 1.0 | 2.0 | 0.00 | 0.00 | 0.00 | 88 | 1011.7 |
| 20260902110801 | 76 | 135 | 1.0 | 2.0 | 0.00 | 0.00 | 0.00 | 88 | 1011.5 |
| 20260902110257 | 76 | 136 | 0.0 | 2.0 | 0.00 | 0.00 | 0.00 | 88 | 1011.8 |
| 20260902105757 | 76 | 135 | 0.0 | 1.0 | 0.00 | 0.00 | 0.00 | 88 | 1011.7 |
| 20260902105252 | 76 | 136 | 0.0 | 2.0 | 0.00 | 0.00 | 0.00 | 88 | 1011.9 |
| 20260902104747 | 76 | 139 | 1.0 | 1.0 | 0.00 | 0.00 | 0.00 | 89 | 1011.9 |
| 20260902104243 | 76 | 136 | 0.0 | 1.0 | 0.00 | 0.00 | 0.00 | 88 | 1012.1 |
| 20260902103743 | 76 | 135 | 0.0 | 1.0 | 0.00 | 0.00 | 0.00 | 88 | 1011.7 |
| 20260902103237 | 76 | 136 | 0.0 | 0.0 | 0.00 | 0.00 | 0.00 | 87 | 1011.8 |
| 20260902102733 | 76 | 136 | 0.0 | 0.0 | 0.00 | 0.00 | 0.00 | 87 | 1011.7 |
| 20260902102230 | 76 | 136 | 0.0 | 1.0 | 0.00 | 0.00 | 0.00 | 87 | 1011.5 |
| 20260902101720 | 76 | 136 | 1.0 | 2.0 | 0.00 | 0.00 | 0.00 | 88 | 1011.7 |
| 20260902101214 | 76 | 136 | 1.0 | 1.0 | 0.00 | 0.00 | 0.00 | 88 | 1011.7 |
| 20260902100713 | 76 | 135 | 0.0 | 1.0 | 0.00 | 0.00 | 0.00 | 88 | 1011.9 |
| 20260902100209 | 76 | 136 | 0.0 | 0.0 | 0.00 | 0.00 | 0.00 | 88 | 1011.6 |
| 20260902095708 | 76 | 136 | 0.0 | 0.0 | 0.00 | 0.00 | 0.00 | 88 | 1011.6 |
| 20260902095202 | 76 | 136 | 0.0 | 0.0 | 0.00 | 0.00 | 0.00 | 88 | 1011.7 |
| 20260902094657 | 77 | 136 | 0.0 | 0.0 | 0.00 | 0.00 | 0.00 | 87 | 1011.6 |
| 20260902094153 | 77 | 135 | 0.0 | 0.0 | 0.00 | 0.00 | 0.00 | 87 | 1011.7 |
| 20260902093652 | 77 | 135 | 0.0 | 1.0 | 0.00 | 0.00 | 0.00 | 87 | 1011.8 |
| 20260902093148 | 77 | 136 | 0.0 | 1.0 | 0.00 | 0.00 | 0.00 | 87 | 1011.6 |
| 20260902092643 | 77 | 136 | 0.0 | 1.0 | 0.00 | 0.00 | 0.00 | 87 | 1011.6 |
| 20260902092137 | 77 | 135 | 1.0 | 1.0 | 0.00 | 0.00 | 0.00 | 87 | 1011.7 |
| 20260902091632 | 77 | 135 | 1.0 | 2.0 | 0.00 | 0.00 | 0.00 | 87 | 1011.4 |
| 20260902091128 | 76 | 135 | 0.0 | 0.0 | 0.00 | 0.00 | 0.00 | 89 | 1011.4 |
| 20260902090624 | 76 | 137 | 0.0 | 0.0 | 0.00 | 0.00 | 0.00 | 90 | 1011.4 |
| 20260902090123 | 75 | 134 | 0.0 | 0.0 | 0.00 | 0.00 | 0.00 | 91 | 1011.3 |
| 20260902085618 | 75 | 139 | 0.0 | 0.0 | 0.00 | 0.00 | 0.00 | 92 | 1011.4 |
| 20260902085113 | 75 | 138 | 0.0 | 0.0 | 0.00 | 0.00 | 0.00 | 92 | 1011.2 |
| 20260902084609 | 75 | 140 | 0.0 | 0.0 | 0.00 | 0.00 | 0.00 | 94 | 1011.4 |
| 20260902084105 | 75 | 138 | 0.0 | 0.0 | 0.00 | 0.00 | 0.00 | 94 | 1011.4 |
| 20260902083559 | 75 | 137 | 0.0 | 0.0 | 0.00 | 0.00 | 0.00 | 94 | 1011.5 |
| 20260902083054 | 75 | 136 | 0.0 | 0.0 | 0.00 | 0.00 | 0.00 | 94 | 1011.3 |
| 20260902082549 | 75 | 137 | 0.0 | 0.0 | 0.00 | 0.00 | 0.00 | 94 | 1011.1 |
| 20260902082046 | 75 | 138 | 0.0 | 0.0 | 0.00 | 0.00 | 0.00 | 93 | 1011.4 |
| 20260902081543 | 75 | 137 | 0.0 | 0.0 | 0.00 | 0.00 | 0.00 | 93 | 1011.2 |
| 20260902081042 | 75 | 138 | 0.0 | 0.0 | 0.00 | 0.00 | 0.00 | 93 | 1011.3 |
| 20260902080537 | 75 | 139 | 0.0 | 0.0 | 0.00 | 0.00 | 0.00 | 93 | 1011.4 |
| 20260902080034 | 76 | 138 | 0.0 | 0.0 | 0.00 | 0.00 | 0.00 | 92 | 1011.3 |
| 20260902075533 | 76 | 138 | 0.0 | 0.0 | 0.00 | 0.00 | 0.00 | 92 | 1011.3 |
| 20260902075030 | 76 | 139 | 0.0 | 0.0 | 0.00 | 0.00 | 0.00 | 91 | 1011.4 |